Back to catalog

SL-8 R/B

AlivePO
NORAD 9738·ROCKET BODY·🇷🇺 Russia

Launched Jan 20, 1977 from Plesetsk Cosmodrome

Loading…

Next Passes (next 24 hours)

TLE

FreshSource: Space-Track

Epoch: Sep 14, 2026, 10:46 UTC

1 09738U 77004B   26257.44912928  .00000152  00000-0  14588-3 0  9993
2 09738  82.9604  54.1251 0015664 217.1585 155.0005 13.73931632488179

Track SL-8 R/B in real time with AllMySat

Download on the App Store